Weather History for Greeley, CO

Change the Weather History Date:

Friday, January 10, 2014

  Actual Average Record
Temperature  
Mean Temperature 31 °F -  
Max Temperature 41 °F 37 °F 72 °F (1990)
Min Temperature 21 °F 13 °F -5 °F (2011)
Degree Days  
Heating Degree Days 34    
Moisture  
Dew Point 15 °F    
Average Humidity 51    
Maximum Humidity 60    
Minimum Humidity 39    
Precipitation  
Precipitation 0.00 in - - ()
Sea Level Pressure  
Sea Level Pressure 29.71 in    
Wind  
Wind Speed 13 mph (NW)    
Max Wind Speed 29 mph    
Max Gust Speed 41 mph    
Visibility 10 miles    
Events      
Averages and records for this station are not official NWS values.
T = Trace of Precipitation, MM = Missing Value Source: NWS Daily Summary

Daily Weather History Graph

Daily Weather History Graph

Search for Another Location

Airport:

Trip Planner

Search our weather history database for the weather conditions in past years. The results will help you decide how hot, cold, wet, or windy it might be!

Date:

Astronomy

Jan. 10, 2014 Rise Set
Actual Time 7:21 AM MST 4:51 PM MST
Civil Twilight 6:50 AM MST 5:21 PM MST
Nautical Twilight 6:17 AM MST 5:55 PM MST
Astronomical Twilight 5:44 AM MST 6:28 PM MST
Moon 12:57 PM MST (1/10) 2:30 AM MST (1/10)
Length of Visible Light 10h 30m
Length of Day
9h 30m
Waxing Gibbous, 75% of the Moon is Illuminated
Jan 10
Waxing Gibbous
Jan 15
Full
Jan 23
Last Quarter
Jan 30
New
Feb 6
First Quarter

Hourly Weather History & Observations

Time (MST) Temp. Windchill Dew Point Humidity Pressure Visibility Wind Dir Wind Speed Gust Speed Precip Events Conditions
12:15 AM 33.8 °F 23.9 °F 19.4 °F 56% 29.68 in 10.0 mi NNW 15.0 mph - N/A   Overcast
12:35 AM 33.8 °F 24.8 °F 21.2 °F 60% 29.68 in 10.0 mi NW 12.7 mph - N/A   Mostly Cloudy
12:55 AM 32.0 °F 23.0 °F 19.4 °F 60% 29.69 in 10.0 mi NNW 11.5 mph - N/A   Mostly Cloudy
1:15 AM 30.2 °F 18.9 °F 15.8 °F 55% 29.68 in 10.0 mi NW 16.1 mph - N/A   Mostly Cloudy
1:35 AM 28.4 °F 20.4 °F 15.8 °F 59% 29.69 in 10.0 mi NW 8.1 mph - N/A   Partly Cloudy
1:55 AM 28.4 °F 18.0 °F 12.2 °F 51% 29.70 in 10.0 mi NNW 12.7 mph - N/A   Clear
2:15 AM 26.6 °F 19.1 °F 12.2 °F 55% 29.70 in 10.0 mi NW 6.9 mph - N/A   Clear
2:35 AM 26.6 °F 16.2 °F 10.4 °F 51% 29.69 in 10.0 mi WNW 11.5 mph - N/A   Clear
2:55 AM 30.2 °F 18.9 °F 10.4 °F 44% 29.69 in 10.0 mi NW 16.1 mph - N/A   Clear
3:15 AM 28.4 °F 17.5 °F 10.4 °F 47% 29.69 in 10.0 mi NW 13.8 mph 19.6 mph N/A   Clear
3:35 AM 28.4 °F 17.0 °F 10.4 °F 47% 29.69 in 10.0 mi NW 15.0 mph - N/A   Clear
3:55 AM 28.4 °F 18.0 °F 10.4 °F 47% 29.69 in 10.0 mi NW 12.7 mph - N/A   Clear
4:15 AM 24.8 °F 15.3 °F 8.6 °F 50% 29.69 in 10.0 mi West 9.2 mph - N/A   Clear
4:35 AM 24.8 °F 15.3 °F 10.4 °F 54% 29.68 in 10.0 mi NW 9.2 mph - N/A   Scattered Clouds
4:55 AM 21.2 °F 11.7 °F 8.6 °F 58% 29.68 in 10.0 mi NNW 8.1 mph - N/A   Partly Cloudy
5:15 AM 26.6 °F 17.5 °F 10.4 °F 51% 29.68 in 10.0 mi NW 9.2 mph - N/A   Mostly Cloudy
5:35 AM 26.6 °F 18.2 °F 10.4 °F 51% 29.67 in 10.0 mi WSW 8.1 mph - N/A   Overcast
5:55 AM 26.6 °F 21.2 °F 10.4 °F 51% 29.68 in 10.0 mi West 4.6 mph - N/A   Overcast
6:15 AM 28.4 °F 16.6 °F 10.4 °F 47% 29.68 in 10.0 mi NW 16.1 mph - N/A   Overcast
6:35 AM 28.4 °F 16.2 °F 12.2 °F 51% 29.67 in 10.0 mi WNW 17.3 mph 21.9 mph N/A   Overcast
6:55 AM 26.6 °F 18.2 °F 10.4 °F 51% 29.68 in 10.0 mi NW 8.1 mph - N/A   Mostly Cloudy
7:15 AM 26.6 °F 16.2 °F 8.6 °F 47% 29.69 in 10.0 mi NNW 11.5 mph - N/A   Overcast
7:35 AM 26.6 °F 17.5 °F 8.6 °F 47% 29.69 in 10.0 mi NNW 9.2 mph - N/A   Scattered Clouds
7:55 AM 24.8 °F 11.9 °F 6.8 °F 46% 29.68 in 10.0 mi NW 16.1 mph - N/A   Clear
8:15 AM 28.4 °F 17.5 °F 10.4 °F 47% 29.69 in 10.0 mi NNW 13.8 mph - N/A   Clear
8:35 AM 30.2 °F 18.1 °F 12.2 °F 47% 29.69 in 10.0 mi NW 18.4 mph 23.0 mph N/A   Clear
8:55 AM 33.8 °F 22.5 °F 14.0 °F 44% 29.68 in 10.0 mi NW 19.6 mph - N/A   Clear
9:15 AM 33.8 °F 22.8 °F 14.0 °F 44% 29.68 in 10.0 mi NNW 18.4 mph - N/A   Clear
9:35 AM 33.8 °F 23.5 °F 15.8 °F 48% 29.68 in 10.0 mi NNW 16.1 mph 23.0 mph N/A   Clear
9:55 AM 33.8 °F 24.3 °F 15.8 °F 48% 29.69 in 10.0 mi NNW 13.8 mph - N/A   Clear
10:15 AM 33.8 °F 24.8 °F 17.6 °F 52% 29.69 in 10.0 mi NNW 12.7 mph - N/A   Clear
10:35 AM 35.6 °F 28.0 °F 17.6 °F 48% 29.70 in 10.0 mi NNW 10.4 mph - N/A   Clear
10:55 AM 35.6 °F 31.7 °F 15.8 °F 44% 29.69 in 10.0 mi SW 4.6 mph - N/A   Partly Cloudy
11:15 AM 33.8 °F 27.0 °F 15.8 °F 48% 29.70 in 10.0 mi SSW 8.1 mph - N/A   Scattered Clouds
11:35 AM 35.6 °F 30.7 °F 14.0 °F 41% 29.69 in 10.0 mi SW 5.8 mph - N/A   Overcast
11:55 AM 33.8 °F 27.0 °F 15.8 °F 48% 29.68 in 10.0 mi WSW 8.1 mph - N/A   Mostly Cloudy
12:15 PM 33.8 °F 28.6 °F 17.6 °F 52% 29.67 in 10.0 mi WNW 5.8 mph - N/A   Partly Cloudy
12:35 PM 39.2 °F 30.5 °F 17.6 °F 42% 29.66 in 10.0 mi NNW 16.1 mph - N/A   Mostly Cloudy
12:55 PM 39.2 °F 32.0 °F 17.6 °F 42% 29.66 in 10.0 mi NW 11.5 mph 17.3 mph N/A   Overcast
1:15 PM 41.0 °F 30.7 °F 17.6 °F 39% 29.64 in 10.0 mi WNW 25.3 mph 31.1 mph N/A   Overcast
1:35 PM 39.2 °F 28.3 °F 17.6 °F 42% 29.64 in 10.0 mi WNW 25.3 mph 33.4 mph N/A   Mostly Cloudy
1:55 PM 39.2 °F 28.5 °F 17.6 °F 42% 29.64 in 10.0 mi WNW 24.2 mph 31.1 mph N/A   Partly Cloudy
2:15 PM 39.2 °F 27.8 °F 19.4 °F 45% 29.64 in 10.0 mi NW 27.6 mph 41.4 mph N/A   Clear
2:35 PM 39.2 °F 27.6 °F 19.4 °F 45% 29.64 in 10.0 mi NW 28.8 mph 38.0 mph N/A   Clear
2:55 PM 39.2 °F 27.6 °F 19.4 °F 45% 29.66 in 10.0 mi NW 28.8 mph 36.8 mph N/A   Clear
3:15 PM 39.2 °F 28.5 °F 19.4 °F 45% 29.67 in 10.0 mi NW 24.2 mph 34.5 mph N/A   Clear
3:35 PM 39.2 °F 29.6 °F 19.4 °F 45% 29.68 in 10.0 mi WNW 19.6 mph - N/A   Clear
3:55 PM 37.4 °F 27.2 °F 19.4 °F 48% 29.70 in 10.0 mi WNW 19.6 mph - N/A   Clear
4:15 PM 37.4 °F 29.3 °F 19.4 °F 48% 29.72 in 10.0 mi NW 12.7 mph - N/A   Clear
4:35 PM 35.6 °F 25.2 °F 19.4 °F 52% 29.72 in 10.0 mi WNW 18.4 mph - N/A   Clear
4:55 PM 35.6 °F 26.6 °F 17.6 °F 48% 29.73 in 10.0 mi WNW 13.8 mph - N/A   Scattered Clouds
5:15 PM 32.0 °F 23.0 °F 17.6 °F 55% 29.74 in 10.0 mi WNW 11.5 mph - N/A   Overcast
5:35 PM 30.2 °F 20.2 °F 17.6 °F 60% 29.74 in 10.0 mi WNW 12.7 mph - N/A   Scattered Clouds
6:35 PM 24.8 °F 19.1 °F 12.2 °F 59% 29.77 in 10.0 mi NW 4.6 mph - N/A   Clear
6:55 PM 28.4 °F 22.2 °F 15.8 °F 59% 29.77 in 10.0 mi West 5.8 mph - N/A   Clear
7:15 PM 30.2 °F 25.4 °F 15.8 °F 55% 29.78 in 10.0 mi West 4.6 mph - N/A   Clear
7:35 PM 28.4 °F 18.5 °F 14.0 °F 55% 29.78 in 10.0 mi NW 11.5 mph - N/A   Clear
7:55 PM 30.2 °F 18.9 °F 17.6 °F 60% 29.78 in 10.0 mi NW 16.1 mph - N/A   Clear
8:15 PM 30.2 °F 21.3 °F 17.6 °F 60% 29.79 in 10.0 mi NW 10.4 mph - N/A   Clear
8:35 PM 30.2 °F 20.8 °F 15.8 °F 55% 29.80 in 10.0 mi NW 11.5 mph - N/A   Clear
8:55 PM 30.2 °F 20.8 °F 17.6 °F 60% 29.80 in 10.0 mi NW 11.5 mph - N/A   Clear
9:15 PM 30.2 °F 18.9 °F 17.6 °F 60% 29.80 in 10.0 mi NW 16.1 mph - N/A   Clear
9:35 PM 33.8 °F 22.5 °F 19.4 °F 56% 29.81 in 10.0 mi NW 19.6 mph - N/A   Clear
9:55 PM 35.6 °F 25.5 °F 19.4 °F 52% 29.82 in 10.0 mi NW 17.3 mph - N/A   Clear
10:15 PM 33.8 °F 23.9 °F 19.4 °F 56% 29.83 in 10.0 mi NNW 15.0 mph 24.2 mph N/A   Clear
10:35 PM 33.8 °F 24.3 °F 19.4 °F 56% 29.84 in 10.0 mi NNW 13.8 mph - N/A   Clear
10:55 PM 33.8 °F 24.3 °F 19.4 °F 56% 29.85 in 10.0 mi NNW 13.8 mph - N/A   Clear
11:15 PM 33.8 °F 23.9 °F 19.4 °F 56% 29.85 in 10.0 mi NNW 15.0 mph - N/A   Clear
11:35 PM 33.8 °F 24.3 °F 19.4 °F 56% 29.85 in 10.0 mi NNW 13.8 mph - N/A   Clear
11:55 PM 33.8 °F 23.9 °F 19.4 °F 56% 29.85 in 10.0 mi NNW 15.0 mph - N/A   Clear